Wind_Speed
5 5 5 5 5 5 5 4 3 3 4 4 5 5 5 5 5 4 4 3 3 3 3 3 3 4 5 4 3 2 2 3 3 2 1 1 1 1 1 2 1 1 1 2 3 4 5 4 4
5 5 6 5 5 4 5 4 3 3 4 5 5 5 6 6 6 6 5 5 5 5 5 4 4 4 5 5 3 3 3 4 4 3 2 2 2 2 2 2 2 2 2 4 4 5 5 4 4
4 5 5 5 5 4 5 5 4 4 5 6 6 6 6 6 6 7 6 5 5 5 5 5 5 5 5 5 5 4 4 4 4 4 4 3 3 3 3 3 3 3 4 5 5 5 4 3 2
4 5 5 5 5 5 6 5 5 6 6 7 7 7 7 7 7 7 7 6 6 5 6 6 6 6 6 6 6 5 5 5 5 5 5 4 4 5 4 4 4 4 5 5 5 5 4 3 3
5 5 5 5 6 6 6 6 7 7 7 7 7 7 7 7 7 7 7 7 6 6 6 6 6 6 6 6 6 6 5 5 6 6 6 5 5 6 6 6 6 6 6 6 6 6 5 4 4
5 5 6 6 6 7 7 7 8 8 7 7 7 8 7 7 8 7 7 7 7 7 7 7 6 6 6 6 6 6 5 5 6 6 6 6 6 7 7 6 7 6 5 6 6 6 5 5 4
6 6 6 7 7 7 8 8 8 8 7 7 8 8 8 8 8 8 8 8 8 7 7 7 7 7 7 6 6 6 5 6 6 6 6 6 7 7 7 6 6 6 6 6 6 6 6 5 4
6 7 7 8 8 8 8 9 8 8 8 8 8 8 8 9 9 9 8 8 8 7 7 7 8 7 7 7 7 6 6 6 6 6 6 7 7 7 7 7 6 6 6 6 6 6 6 5 5
7 7 7 8 9 9 8 8 8 9 9 8 8 8 8 9 9 9 9 9 8 8 8 8 7 7 7 7 7 7 7 7 7 7 7 7 7 7 7 7 7 6 6 6 6 7 7 7 6
7 8 8 8 9 9 8 8 8 8 9 8 8 8 8 9 9 9 9 10 10 9 8 7 7 7 7 7 7 7 7 7 7 7 7 7 8 8 7 7 7 7 7 7 7 8 7 7 6
8 9 9 8 8 9 9 9 9 9 9 8 9 9 9 9 9 9 9 10 9 9 8 8 7 7 8 7 7 7 7 7 7 7 7 7 7 8 8 8 7 7 8 8 8 8 8 8 7
9 9 9 9 9 9 10 10 10 10 10 9 9 10 9 9 9 9 9 9 9 9 9 8 8 8 8 8 8 8 8 7 8 8 8 8 8 8 8 8 8 8 8 9 9 8 8 8 8
9 10 10 9 9 10 10 10 10 10 11 11 10 9 9 9 8 8 9 9 9 9 8 8 8 8 8 8 8 8 8 8 9 9 9 9 9 8 9 8 8 9 9 9 9 8 8 8 8
9 9 9 9 9 10 10 10 10 10 11 11 10 10 10 10 9 9 9 10 9 9 9 8 9 9 9 9 9 8 8 9 9 10 10 9 9 9 9 9 9 10 10 10 9 9 8 8 8
8 8 8 9 9 10 11 10 10 10 10 11 10 10 10 10 10 10 10 10 9 9 9 9 9 9 10 9 9 9 9 10 10 10 10 10 10 9 10 9 9 10 10 9 9 8 8 8 8
8 8 8 7 8 9 10 9 9 9 9 9 9 9 10 10 9 9 10 10 9 9 9 10 10 10 10 10 10 10 10 10 10 10 10 10 10 10 9 10 9 9 9 8 8 8 8 8 8
8 8 8 7 7 8 9 9 8 8 9 9 9 9 10 10 9 9 9 10 10 10 10 11 11 11 10 10 10 10 10 10 10 10 10 10 10 9 9 10 9 8 8 7 8 8 8 8 8
7 8 8 8 7 8 8 9 8 9 9 9 9 9 9 9 9 9 10 10 10 10 11 11 11 11 11 10 10 10 10 10 10 10 10 10 10 10 10 9 9 8 8 7 8 8 8 8 8
8 8 9 9 8 9 8 9 9 9 9 9 9 9 9 9 9 9 10 10 10 11 10 10 11 11 11 10 10 10 11 10 10 10 10 10 10 9 9 9 9 8 8 7 7 7 8 8 8
9 9 10 9 8 9 9 9 10 9 9 9 9 9 10 10 10 9 10 11 11 12 11 11 11 12 11 10 10 10 11 11 10 11 10 9 9 9 9 9 8 8 7 7 7 7 7 8 8
9 9 9 9 9 9 9 10 9 10 10 11 11 10 10 10 11 10 11 11 11 12 12 12 12 12 12 11 11 11 11 11 11 11 10 9 9 9 9 8 8 7 7 7 7 7 7 8 9
9 9 9 9 9 9 10 11 10 10 11 11 12 12 12 12 12 12 12 12 12 12 12 12 12 12 13 12 12 12 12 11 11 10 10 9 9 9 9 8 7 7 8 7 7 8 8 8 8
9 9 9 10 10 10 11 12 12 12 11 12 12 13 13 13 13 13 13 13 13 13 12 13 12 12 13 13 12 12 12 12 12 11 10 10 10 9 8 8 7 8 8 8 8 8 8 8 8
10 10 10 10 10 10 10 12 13 13 13 13 13 13 14 14 14 14 14 14 13 13 13 13 13 13 13 13 13 12 12 12 11 11 10 10 10 9 8 9 9 8 8 8 8 8 8 8 8
11 11 10 10 10 10 12 13 14 13 14 14 14 15 15 15 15 14 14 14 14 14 14 13 13 13 13 13 12 12 12 12 11 11 11 10 10 10 9 9 9 9 9 9 9 9 9 9 9
12 12 11 10 9 10 13 14 14 14 15 15 15 15 15 16 16 15 15 15 15 14 14 14 14 13 13 13 13 13 13 12 12 12 11 11 11 10 10 10 10 10 10 10 11 11 10 10 10
14 14 13 13 12 11 14 16 16 16 16 16 15 15 16 16 16 16 16 16 16 15 14 14 14 14 14 14 14 14 13 13 13 12 13 12 11 12 11 12 12 11 11 12 12 12 12 12 11
15 15 14 15 14 14 14 15 18 17 17 17 17 16 17 17 17 17 17 16 16 15 15 15 15 15 15 15 15 15 15 14 14 14 13 13 12 13 13 13 13 12 13 13 13 13 13 12 12
16 17 17 17 16 16 15 16 18 19 18 17 18 18 18 18 18 17 17 17 16 15 15 15 15 15 15 15 15 15 16 16 15 14 14 14 14 14 14 14 14 14 13 14 14 14 13 13 13
18 18 18 18 17 17 17 18 19 20 20 19 18 18 18 18 18 18 18 18 17 17 17 16 16 16 15 15 15 16 16 16 16 16 16 16 15 15 15 15 15 15 15 15 15 14 14 15 15
Wind_Direction
218 213 210 208 213 221 234 238 234 229 234 241 243 243 242 247 251 258 266 271 275 279 280 286 304 319 332 325 314 314 323 334 331 338 343 351 340 314 303 291 284 284 315 320 322 318 313 292 268
221 219 209 208 216 226 238 242 236 237 241 248 254 254 251 251 254 257 262 266 268 273 275 280 296 309 322 323 318 300 296 309 314 315 313 313 304 293 292 285 274 273 301 318 324 322 325 299 264
219 220 213 213 225 235 244 250 237 243 251 255 256 258 258 258 256 254 259 265 266 269 271 274 284 299 311 317 312 304 296 302 302 308 307 305 298 289 288 290 284 281 297 314 318 320 323 307 258
218 219 222 220 225 234 240 247 245 253 259 257 254 255 255 256 260 257 259 263 268 270 273 278 284 297 309 316 316 303 299 301 301 298 300 295 293 291 291 293 289 289 295 304 311 314 309 299 276
220 217 226 228 231 235 237 243 249 254 257 256 254 257 257 258 259 258 262 265 270 274 274 279 286 296 306 313 318 313 304 300 298 297 295 293 292 294 290 290 286 289 296 303 309 307 301 287 274
228 227 234 232 235 239 240 245 250 258 259 257 257 258 260 257 257 256 261 266 268 276 277 279 288 295 303 311 318 316 306 301 300 297 296 297 294 293 292 291 294 290 291 298 300 297 299 295 282
237 236 240 243 242 241 244 246 249 255 259 259 260 262 261 257 257 258 260 264 267 272 276 279 287 290 293 299 313 315 308 304 304 298 296 299 297 295 298 297 299 296 294 296 296 291 286 280 278
241 238 241 248 248 247 247 249 249 252 258 262 265 265 261 257 257 257 257 261 267 270 276 278 287 290 295 301 307 309 309 306 302 296 294 298 298 296 297 297 296 294 293 292 291 288 283 279 284
242 243 246 249 250 249 249 250 252 251 257 260 266 267 263 258 258 257 255 259 268 269 275 281 286 290 292 298 305 307 306 304 302 297 293 296 298 297 295 292 290 292 291 290 289 286 288 287 285
241 244 250 251 251 252 253 255 256 250 256 260 262 265 264 265 262 259 259 262 267 270 273 276 286 290 295 301 304 306 306 305 302 297 294 294 293 295 295 289 288 288 290 288 286 288 290 289 289
244 248 252 256 258 258 258 260 260 256 257 260 263 266 268 270 263 261 261 264 267 272 274 278 286 293 298 302 305 304 305 304 302 300 299 296 293 293 295 290 289 287 288 286 285 287 289 288 288
247 249 253 256 257 258 260 261 261 261 259 259 261 265 264 268 266 262 264 269 268 269 272 277 288 295 297 297 300 303 303 303 303 300 299 297 295 292 289 288 289 289 287 284 284 286 287 286 284
249 252 255 258 260 262 263 260 262 266 263 263 263 265 265 268 266 266 268 270 269 269 272 278 281 289 293 295 299 301 300 302 305 302 300 295 295 292 292 292 290 289 289 286 285 285 286 283 282
251 252 255 257 258 261 263 265 265 268 268 268 268 268 267 265 266 268 271 275 274 273 274 278 284 286 290 294 298 301 301 304 304 303 303 298 296 291 292 291 289 288 286 283 282 283 284 283 283
249 252 256 257 259 263 265 264 267 269 268 268 267 266 263 265 266 269 273 277 277 277 278 280 288 289 291 294 298 298 299 302 303 302 304 300 297 291 291 292 290 288 282 281 283 282 281 283 285
246 250 257 261 263 265 265 264 267 268 270 271 269 267 266 268 271 272 276 279 282 283 280 283 286 288 289 292 293 297 297 298 301 301 304 300 294 293 290 290 290 285 283 285 287 280 276 280 282
248 252 258 260 262 267 265 266 268 270 271 273 272 270 269 270 273 276 279 281 282 284 285 288 289 288 289 291 291 294 298 301 303 301 303 303 294 290 288 291 294 288 286 285 286 279 277 277 275
245 250 258 263 264 267 270 276 274 272 273 275 273 272 269 268 273 275 278 280 281 283 285 289 289 289 290 292 290 295 300 303 304 303 301 302 297 288 284 286 290 290 285 287 286 281 277 273 272
247 253 261 267 272 272 275 279 279 276 277 277 279 275 273 275 276 275 279 281 283 284 285 287 287 288 289 290 292 295 298 301 302 300 298 298 299 297 288 287 287 289 283 280 280 276 276 276 276
249 253 262 268 274 274 278 280 278 280 282 280 278 276 275 277 282 278 281 284 286 287 286 285 287 286 287 287 288 292 298 299 302 302 296 295 295 297 301 298 296 295 292 290 285 285 285 283 281
247 252 260 267 273 276 279 280 276 278 280 279 279 279 278 279 281 282 283 284 287 287 285 283 286 285 285 285 284 286 292 297 302 303 297 292 294 295 295 298 298 295 295 294 291 292 289 285 283
248 254 259 267 273 278 282 285 282 283 280 278 278 279 280 280 279 280 283 287 286 286 286 283 284 284 282 281 281 284 287 292 297 298 296 294 297 296 292 296 294 291 290 290 291 292 293 290 291
249 253 259 267 274 279 281 284 288 287 286 282 280 279 278 278 278 279 281 285 286 285 285 283 282 283 281 281 280 281 285 285 287 291 291 290 293 295 290 289 290 288 289 288 288 289 291 290 290
253 254 259 266 272 275 278 280 284 287 285 282 280 278 277 276 275 276 278 280 282 282 282 280 280 279 279 277 279 278 283 283 282 285 286 287 286 284 284 288 287 287 289 287 287 289 287 287 287
254 255 258 265 270 278 280 279 279 285 286 284 283 281 279 278 277 275 274 275 278 280 280 278 276 276 276 276 277 277 279 281 281 282 281 280 281 279 281 285 285 283 285 285 288 291 289 285 284
257 256 253 256 262 271 279 280 279 281 285 285 284 282 279 279 279 277 276 275 276 277 279 278 275 274 274 276 276 276 278 278 278 280 278 276 275 276 278 283 284 280 281 283 286 288 288 286 285
259 257 258 255 258 258 268 278 280 281 282 282 283 283 280 277 277 277 275 275 275 276 276 277 276 273 273 275 274 276 276 275 276 276 276 275 276 277 279 282 285 281 277 280 283 284 284 284 284
258 258 256 255 257 261 268 275 281 283 282 282 281 281 280 277 275 276 276 276 276 275 275 276 278 275 273 274 274 274 273 273 273 274 272 275 276 275 277 279 281 282 281 280 280 282 281 282 283
258 258 259 258 259 262 262 267 275 282 284 283 282 279 277 276 275 274 273 274 275 276 275 276 278 275 274 273 274 273 271 271 272 273 274 275 275 274 276 275 276 279 280 280 279 280 279 280 282
258 257 259 259 260 263 264 266 273 278 283 282 282 282 279 278 274 271 273 274 273 275 276 275 276 275 275 274 274 273 271 270 271 273 275 277 276 275 275 275 275 276 279 280 279 278 279 280 280
Height
5873 5874 5875 5876 5877 5877 5877 5877 5878 5879 5879 5880 5880 5881 5881 5882 5883 5885 5883 5882 5883 5883 5882 5882 5882 5882 5881 5881 5881 5880 5880 5879 5879 5879 5878 5878 5878 5877 5877 5877 5877 5877 5877 5877 5876 5876 5874 5872 5873
5873 5874 5875 5876 5876 5876 5877 5877 5878 5879 5879 5880 5880 5881 5881 5881 5882 5882 5882 5882 5882 5882 5882 5882 5881 5881 5881 5880 5880 5880 5879 5879 5879 5878 5878 5877 5877 5877 5877 5877 5877 5877 5877 5877 5876 5875 5872 5869 5870
5872 5873 5875 5875 5875 5876 5876 5876 5877 5878 5878 5879 5880 5880 5881 5881 5881 5881 5881 5881 5881 5881 5881 5881 5881 5881 5880 5880 5879 5879 5879 5879 5878 5878 5877 5877 5877 5877 5877 5877 5876 5876 5876 5876 5875 5874 5872 5870 5871
5872 5873 5874 5875 5875 5875 5876 5876 5877 5877 5878 5878 5879 5880 5880 5880 5880 5880 5880 5881 5881 5881 5881 5881 5880 5880 5880 5879 5879 5878 5878 5878 5878 5877 5877 5876 5876 5876 5876 5876 5876 5876 5876 5875 5875 5874 5873 5872 5872
5871 5872 5874 5874 5874 5874 5875 5875 5876 5877 5877 5877 5878 5879 5879 5879 5879 5879 5880 5880 5880 5880 5880 5880 5880 5880 5879 5879 5878 5877 5877 5877 5877 5876 5876 5876 5876 5875 5875 5875 5875 5875 5875 5875 5874 5873 5873 5872 5872
5871 5872 5873 5872 5873 5874 5874 5875 5875 5876 5876 5877 5877 5878 5878 5878 5878 5878 5879 5879 5879 5879 5879 5879 5879 5879 5878 5878 5877 5877 5877 5876 5876 5875 5875 5875 5875 5874 5874 5874 5874 5874 5874 5874 5873 5873 5873 5872 5872
5871 5871 5871 5871 5872 5873 5873 5874 5874 5875 5875 5876 5876 5877 5877 5877 5877 5877 5878 5878 5878 5878 5878 5878 5878 5878 5878 5877 5877 5876 5876 5876 5875 5875 5874 5874 5874 5873 5873 5873 5873 5873 5872 5872 5872 5872 5872 5872 5871
5869 5870 5870 5870 5871 5871 5872 5872 5873 5874 5874 5875 5875 5875 5876 5876 5876 5876 5876 5877 5877 5877 5877 5877 5877 5877 5877 5876 5876 5876 5875 5875 5874 5874 5873 5873 5873 5872 5872 5871 5871 5871 5871 5871 5871 5871 5871 5871 5870
5868 5870 5869 5869 5870 5870 5870 5871 5872 5872 5873 5873 5873 5874 5874 5874 5874 5875 5875 5876 5876 5876 5876 5876 5876 5876 5875 5875 5875 5874 5874 5874 5873 5873 5872 5872 5872 5871 5871 5870 5870 5870 5870 5870 5870 5870 5870 5870 5869
5867 5867 5867 5868 5868 5869 5869 5870 5870 5871 5872 5872 5872 5873 5873 5873 5873 5873 5874 5875 5875 5875 5875 5875 5875 5874 5874 5874 5874 5873 5873 5872 5872 5872 5871 5871 5870 5870 5869 5869 5869 5869 5869 5869 5869 5869 5869 5868 5868
5865 5866 5866 5866 5867 5868 5868 5869 5869 5870 5870 5871 5871 5871 5871 5872 5872 5872 5872 5873 5873 5873 5874 5873 5873 5873 5873 5873 5873 5872 5872 5871 5871 5870 5870 5869 5869 5869 5868 5868 5868 5868 5868 5868 5868 5868 5868 5867 5867
5863 5864 5865 5865 5866 5866 5867 5867 5868 5868 5869 5869 5870 5870 5870 5870 5870 5870 5871 5871 5871 5872 5872 5872 5872 5872 5872 5872 5871 5871 5870 5870 5870 5869 5868 5868 5868 5867 5867 5867 5866 5866 5866 5866 5866 5866 5866 5866 5866
5862 5862 5863 5864 5864 5865 5865 5866 5866 5867 5867 5868 5868 5868 5868 5868 5869 5869 5869 5870 5870 5870 5871 5871 5871 5870 5870 5870 5870 5870 5869 5869 5868 5868 5867 5866 5866 5866 5865 5865 5865 5865 5865 5865 5865 5864 5864 5864 5864
5860 5861 5862 5862 5863 5863 5864 5864 5865 5865 5865 5866 5866 5866 5866 5867 5867 5867 5868 5868 5868 5869 5869 5869 5869 5869 5869 5869 5869 5868 5868 5868 5867 5866 5865 5865 5864 5864 5864 5864 5864 5863 5863 5863 5863 5863 5863 5862 5862
5859 5860 5861 5861 5861 5862 5862 5863 5863 5863 5863 5864 5864 5864 5865 5865 5865 5866 5866 5866 5866 5867 5867 5868 5868 5868 5867 5867 5867 5867 5866 5866 5865 5865 5864 5863 5863 5863 5862 5862 5862 5861 5861 5861 5861 5861 5861 5861 5861
5857 5859 5859 5860 5860 5860 5862 5861 5862 5862 5862 5862 5862 5863 5863 5864 5864 5864 5864 5864 5864 5865 5866 5866 5866 5866 5866 5866 5865 5865 5865 5864 5864 5863 5862 5862 5861 5861 5861 5860 5860 5860 5859 5859 5859 5859 5859 5859 5859
5856 5857 5857 5858 5858 5858 5859 5859 5860 5860 5860 5861 5861 5861 5862 5862 5862 5862 5863 5863 5863 5863 5864 5864 5864 5864 5864 5864 5864 5863 5863 5862 5862 5861 5861 5860 5860 5859 5859 5859 5859 5858 5858 5858 5857 5857 5857 5857 5857
5855 5855 5856 5857 5857 5857 5857 5858 5858 5859 5859 5859 5859 5860 5860 5860 5860 5861 5861 5861 5861 5862 5862 5862 5862 5862 5862 5861 5862 5861 5861 5861 5860 5860 5859 5859 5858 5857 5857 5857 5857 5857 5856 5856 5856 5855 5855 5856 5856
5853 5854 5855 5855 5855 5856 5856 5856 5856 5857 5857 5857 5858 5858 5858 5858 5859 5859 5859 5859 5859 5860 5860 5860 5860 5860 5860 5860 5860 5859 5859 5859 5858 5858 5857 5857 5856 5856 5856 5855 5855 5855 5855 5855 5854 5854 5854 5854 5854
5852 5853 5854 5854 5854 5854 5854 5854 5855 5855 5855 5856 5856 5856 5856 5857 5857 5857 5857 5857 5857 5858 5858 5858 5858 5858 5858 5858 5858 5857 5857 5857 5856 5856 5855 5855 5854 5854 5854 5854 5854 5854 5853 5853 5853 5852 5852 5852 5852
5850 5851 5852 5852 5852 5852 5853 5853 5853 5854 5854 5854 5854 5854 5854 5855 5855 5855 5855 5855 5855 5855 5855 5855 5855 5855 5855 5855 5855 5855 5855 5855 5854 5854 5853 5853 5853 5852 5852 5852 5852 5852 5852 5852 5851 5851 5851 5851 5851
5849 5850 5850 5850 5851 5851 5851 5851 5851 5851 5852 5852 5852 5852 5852 5852 5852 5853 5853 5853 5853 5853 5853 5853 5853 5853 5853 5853 5853 5853 5853 5853 5852 5852 5851 5851 5851 5851 5851 5851 5850 5850 5850 5850 5850 5849 5849 5849 5849
5847 5848 5848 5849 5849 5849 5849 5849 5850 5849 5849 5850 5850 5850 5850 5850 5850 5850 5850 5850 5850 5850 5850 5850 5850 5850 5850 5850 5850 5850 5850 5850 5850 5849 5849 5849 5849 5849 5849 5849 5849 5849 5848 5848 5848 5848 5847 5847 5847
5845 5846 5846 5846 5847 5848 5848 5848 5848 5847 5847 5847 5847 5847 5847 5847 5847 5847 5847 5847 5847 5847 5847 5847 5847 5847 5847 5847 5847 5847 5847 5847 5847 5847 5847 5847 5847 5847 5847 5847 5847 5847 5847 5847 5846 5846 5845 5845 5845
5843 5844 5845 5845 5845 5846 5846 5845 5846 5844 5844 5844 5844 5844 5844 5844 5844 5844 5844 5844 5844 5844 5844 5844 5845 5844 5844 5844 5844 5844 5844 5844 5844 5844 5844 5844 5844 5844 5845 5844 5844 5844 5844 5844 5844 5844 5843 5842 5842
5840 5842 5843 5843 5843 5843 5842 5842 5843 5842 5842 5841 5841 5841 5841 5841 5841 5841 5841 5841 5841 5841 5841 5841 5841 5841 5841 5841 5841 5842 5841 5841 5841 5841 5842 5842 5841 5841 5842 5842 5842 5841 5842 5841 5841 5841 5841 5840 5840
5837 5838 5839 5840 5839 5840 5840 5840 5839 5839 5839 5839 5838 5838 5838 5838 5838 5837 5837 5837 5837 5838 5838 5838 5838 5838 5838 5838 5838 5838 5838 5838 5838 5838 5838 5838 5838 5838 5839 5839 5839 5839 5838 5838 5838 5838 5838 5837 5837
5835 5835 5835 5836 5836 5837 5838 5837 5836 5835 5835 5835 5835 5834 5834 5834 5834 5834 5834 5834 5834 5834 5834 5834 5834 5834 5834 5834 5834 5834 5835 5835 5835 5835 5835 5835 5835 5835 5835 5835 5835 5835 5835 5835 5835 5835 5834 5834 5834
5831 5832 5831 5832 5833 5833 5834 5835 5832 5831 5832 5831 5831 5830 5830 5830 5830 5829 5830 5830 5830 5830 5830 5830 5830 5830 5830 5830 5830 5830 5831 5831 5831 5831 5831 5831 5831 5831 5832 5832 5832 5832 5831 5831 5831 5831 5831 5830 5830
5826 5827 5828 5828 5828 5829 5829 5832 5828 5828 5827 5827 5826 5826 5825 5825 5825 5825 5825 5826 5826 5826 5826 5826 5826 5826 5826 5826 5826 5826 5826 5827 5827 5827 5827 5827 5827 5827 5827 5827 5828 5827 5827 5827 5827 5827 5827 5827 5827